| time (UTC) | temp F | wind direction | speed MPH | gust MPH | rain 1hr in | rain 24hr in | rain mn in | humidity % | barometer mb |
| 20260904131513 | 95 | 43 | 0.0 | 0.0 | 0.00 | 0.00 | 0.00 | 35 | 1016.4 |
| 20260904131013 | 95 | 54 | 0.0 | 0.0 | 0.00 | 0.00 | 0.00 | 35 | 1016.5 |
| 20260904130513 | 95 | 12 | 0.0 | 0.0 | 0.00 | 0.00 | 0.00 | 36 | 1016.5 |
| 20260904130012 | 94 | 4 | 0.0 | 0.0 | 0.00 | 0.00 | 0.00 | 36 | 1016.6 |
| 20260904125512 | 94 | 103 | 0.0 | 0.0 | 0.00 | 0.00 | 0.00 | 36 | 1016.6 |
| 20260904125012 | 95 | 13 | 0.0 | 0.0 | 0.00 | 0.00 | 0.00 | 35 | 1016.7 |
| 20260904124511 | 95 | 354 | 0.0 | 0.0 | 0.00 | 0.00 | 0.00 | 36 | 1016.7 |
| 20260904124011 | 94 | 58 | 0.0 | 0.0 | 0.00 | 0.00 | 0.00 | 36 | 1016.8 |
| 20260904123511 | 94 | 119 | 0.0 | 0.0 | 0.00 | 0.00 | 0.00 | 36 | 1016.8 |
| 20260904123010 | 94 | 119 | 0.0 | 0.0 | 0.00 | 0.00 | 0.00 | 37 | 1016.9 |
| 20260904122510 | 94 | 60 | 0.0 | 0.0 | 0.00 | 0.00 | 0.00 | 36 | 1016.9 |
| 20260904122010 | 94 | 40 | 0.0 | 0.0 | 0.00 | 0.00 | 0.00 | 37 | 1017.0 |
| 20260904121510 | 93 | 4 | 0.0 | 0.0 | 0.00 | 0.00 | 0.00 | 37 | 1017.0 |
| 20260904121009 | 93 | 18 | 0.0 | 0.0 | 0.00 | 0.00 | 0.00 | 38 | 1017.1 |
| 20260904120509 | 92 | 45 | 0.0 | 0.0 | 0.00 | 0.00 | 0.00 | 38 | 1017.2 |
| 20260904120009 | 92 | 75 | 0.0 | 0.0 | 0.00 | 0.00 | 0.00 | 38 | 1017.3 |
| 20260904115508 | 93 | 64 | 0.0 | 0.0 | 0.00 | 0.00 | 0.00 | 38 | 1017.3 |
| 20260904115008 | 93 | 31 | 0.0 | 0.0 | 0.00 | 0.00 | 0.00 | 38 | 1017.3 |
| 20260904114508 | 93 | 31 | 0.0 | 0.0 | 0.00 | 0.00 | 0.00 | 38 | 1017.4 |
| 20260904114008 | 92 | 114 | 0.0 | 0.0 | 0.00 | 0.00 | 0.00 | 39 | 1017.4 |
| 20260904113507 | 92 | 20 | 0.0 | 0.0 | 0.00 | 0.00 | 0.00 | 39 | 1017.4 |
| 20260904113007 | 92 | 354 | 0.0 | 0.0 | 0.00 | 0.00 | 0.00 | 39 | 1017.5 |
| 20260904112507 | 92 | 37 | 0.0 | 0.0 | 0.00 | 0.00 | 0.00 | 39 | 1017.6 |
| 20260904112006 | 92 | 41 | 0.0 | 0.0 | 0.00 | 0.00 | 0.00 | 40 | 1017.6 |
| 20260904111506 | 92 | 354 | 0.0 | 0.0 | 0.00 | 0.00 | 0.00 | 40 | 1017.6 |
| 20260904111006 | 92 | 8 | 0.0 | 0.0 | 0.00 | 0.00 | 0.00 | 40 | 1017.7 |
| 20260904110506 | 91 | 22 | 0.0 | 0.0 | 0.00 | 0.00 | 0.00 | 41 | 1017.7 |
| 20260904110005 | 91 | 347 | 0.0 | 0.0 | 0.00 | 0.00 | 0.00 | 41 | 1017.8 |
| 20260904105505 | 91 | 118 | 0.0 | 0.0 | 0.00 | 0.00 | 0.00 | 41 | 1017.8 |
| 20260904105005 | 91 | 97 | 0.0 | 0.0 | 0.00 | 0.00 | 0.00 | 41 | 1017.9 |
| 20260904104504 | 91 | 359 | 0.0 | 0.0 | 0.00 | 0.00 | 0.00 | 42 | 1017.9 |
| 20260904104004 | 90 | 84 | 0.0 | 0.0 | 0.00 | 0.00 | 0.00 | 41 | 1018.0 |
| 20260904103504 | 91 | 122 | 0.0 | 0.0 | 0.00 | 0.00 | 0.00 | 41 | 1018.0 |
| 20260904103004 | 91 | 118 | 0.0 | 0.0 | 0.00 | 0.00 | 0.00 | 42 | 1018.0 |
| 20260904102503 | 90 | 29 | 0.0 | 0.0 | 0.00 | 0.00 | 0.00 | 43 | 1018.0 |
| 20260904102003 | 90 | 29 | 0.0 | 0.0 | 0.00 | 0.00 | 0.00 | 43 | 1018.1 |
| 20260904101503 | 89 | 61 | 0.0 | 0.0 | 0.00 | 0.00 | 0.00 | 44 | 1018.2 |
| 20260904101002 | 89 | 89 | 0.0 | 0.0 | 0.00 | 0.00 | 0.00 | 45 | 1018.2 |
| 20260904100502 | 89 | 87 | 0.0 | 0.0 | 0.00 | 0.00 | 0.00 | 44 | 1018.3 |
| 20260904100002 | 89 | 13 | 0.0 | 0.0 | 0.00 | 0.00 | 0.00 | 45 | 1018.3 |
| 20260904095502 | 89 | 10 | 0.0 | 0.0 | 0.00 | 0.00 | 0.00 | 45 | 1018.4 |
| 20260904095001 | 89 | 108 | 0.0 | 0.0 | 0.00 | 0.00 | 0.00 | 44 | 1018.4 |
| 20260904094501 | 89 | 108 | 0.0 | 0.0 | 0.00 | 0.00 | 0.00 | 44 | 1018.5 |
| 20260904094001 | 88 | 70 | 0.0 | 0.0 | 0.00 | 0.00 | 0.00 | 45 | 1018.5 |
| 20260904093500 | 88 | 43 | 0.0 | 0.0 | 0.00 | 0.00 | 0.00 | 46 | 1018.6 |
| 20260904093000 | 88 | 41 | 0.0 | 0.0 | 0.00 | 0.00 | 0.00 | 46 | 1018.6 |
| 20260904092500 | 88 | 73 | 0.0 | 0.0 | 0.00 | 0.00 | 0.00 | 46 | 1018.6 |
| 20260904092000 | 87 | 60 | 0.0 | 0.0 | 0.00 | 0.00 | 0.00 | 47 | 1018.5 |
| 20260904091459 | 87 | 50 | 0.0 | 0.0 | 0.00 | 0.00 | 0.00 | 47 | 1018.6 |
| 20260904090959 | 87 | 66 | 0.0 | 0.0 | 0.00 | 0.00 | 0.00 | 47 | 1018.6 |
| 20260904090459 | 87 | 93 | 0.0 | 0.0 | 0.00 | 0.00 | 0.00 | 47 | 1018.6 |
| 20260904085958 | 86 | 18 | 0.0 | 0.0 | 0.00 | 0.00 | 0.00 | 47 | 1018.6 |
| 20260904085458 | 86 | 18 | 0.0 | 0.0 | 0.00 | 0.00 | 0.00 | 46 | 1018.8 |
| 20260904084958 | 87 | 19 | 0.0 | 0.0 | 0.00 | 0.00 | 0.00 | 46 | 1018.8 |
| 20260904084458 | 87 | 308 | 0.0 | 0.0 | 0.00 | 0.00 | 0.00 | 47 | 1018.8 |
| 20260904083957 | 86 | 308 | 0.0 | 0.0 | 0.00 | 0.00 | 0.00 | 47 | 1018.7 |
| 20260904083457 | 86 | 308 | 0.0 | 0.0 | 0.00 | 0.00 | 0.00 | 48 | 1018.8 |
| 20260904082957 | 85 | 303 | 0.0 | 0.0 | 0.00 | 0.00 | 0.00 | 48 | 1018.8 |
| 20260904082456 | 85 | 303 | 0.0 | 0.0 | 0.00 | 0.00 | 0.00 | 48 | 1018.8 |
| 20260904081956 | 85 | 302 | 0.0 | 0.0 | 0.00 | 0.00 | 0.00 | 49 | 1018.7 |
| 20260904081456 | 85 | 297 | 0.0 | 0.0 | 0.00 | 0.00 | 0.00 | 48 | 1018.7 |
| 20260904080955 | 85 | 295 | 0.0 | 0.0 | 0.00 | 0.00 | 0.00 | 48 | 1018.6 |
| 20260904080455 | 85 | 295 | 0.0 | 0.0 | 0.00 | 0.00 | 0.00 | 48 | 1018.6 |
| 20260904075955 | 85 | 294 | 0.0 | 0.0 | 0.00 | 0.00 | 0.00 | 48 | 1018.7 |
| 20260904075455 | 85 | 294 | 0.0 | 0.0 | 0.00 | 0.00 | 0.00 | 48 | 1018.7 |
| 20260904074954 | 85 | 294 | 0.0 | 0.0 | 0.00 | 0.00 | 0.00 | 49 | 1018.7 |
| 20260904074454 | 85 | 243 | 0.0 | 0.0 | 0.00 | 0.00 | 0.00 | 49 | 1018.6 |
| 20260904073954 | 84 | 218 | 0.0 | 0.0 | 0.00 | 0.00 | 0.00 | 50 | 1018.6 |
| 20260904073453 | 83 | 219 | 0.0 | 0.0 | 0.00 | 0.00 | 0.00 | 51 | 1018.6 |
| 20260904072953 | 83 | 218 | 0.0 | 0.0 | 0.00 | 0.00 | 0.00 | 52 | 1018.6 |
| 20260904072453 | 82 | 218 | 0.0 | 0.0 | 0.00 | 0.00 | 0.00 | 53 | 1018.6 |
| 20260904071953 | 81 | 218 | 0.0 | 0.0 | 0.00 | 0.00 | 0.00 | 54 | 1018.6 |
| 20260904071452 | 81 | 208 | 0.0 | 0.0 | 0.00 | 0.00 | 0.00 | 55 | 1018.6 |
| 20260904070952 | 80 | 211 | 0.0 | 0.0 | 0.00 | 0.00 | 0.00 | 54 | 1018.6 |
| 20260904070452 | 81 | 216 | 0.0 | 0.0 | 0.00 | 0.00 | 0.00 | 54 | 1018.5 |
| 20260904065951 | 80 | 226 | 0.0 | 0.0 | 0.00 | 0.00 | 0.00 | 55 | 1018.5 |
| 20260904065451 | 80 | 238 | 0.0 | 0.0 | 0.00 | 0.00 | 0.00 | 56 | 1018.5 |
| 20260904064951 | 79 | 211 | 0.0 | 0.0 | 0.00 | 0.00 | 0.00 | 56 | 1018.5 |
| 20260904064451 | 79 | 209 | 0.0 | 0.0 | 0.00 | 0.00 | 0.00 | 56 | 1018.5 |
| 20260904063950 | 79 | 206 | 0.0 | 0.0 | 0.00 | 0.00 | 0.00 | 57 | 1018.5 |
| 20260904063450 | 78 | 212 | 0.0 | 0.0 | 0.00 | 0.00 | 0.00 | 57 | 1018.6 |
| 20260904062950 | 78 | 213 | 0.0 | 0.0 | 0.00 | 0.00 | 0.00 | 58 | 1018.5 |
| 20260904062449 | 78 | 214 | 0.0 | 0.0 | 0.00 | 0.00 | 0.00 | 58 | 1018.5 |
| 20260904061949 | 77 | 212 | 0.0 | 0.0 | 0.00 | 0.00 | 0.00 | 59 | 1018.4 |
| 20260904061449 | 77 | 210 | 0.0 | 0.0 | 0.00 | 0.00 | 0.00 | 60 | 1018.5 |
| 20260904060949 | 76 | 212 | 0.0 | 0.0 | 0.00 | 0.00 | 0.00 | 61 | 1018.4 |
| 20260904060448 | 76 | 212 | 0.0 | 0.0 | 0.00 | 0.00 | 0.00 | 61 | 1018.4 |
| 20260904055948 | 76 | 209 | 0.0 | 0.0 | 0.00 | 0.00 | 0.00 | 61 | 1018.5 |
| 20260904055448 | 76 | 218 | 0.0 | 0.0 | 0.00 | 0.00 | 0.00 | 61 | 1018.4 |
| 20260904054947 | 76 | 201 | 0.0 | 0.0 | 0.00 | 0.00 | 0.00 | 61 | 1018.4 |
| 20260904054447 | 76 | 216 | 0.0 | 0.0 | 0.00 | 0.00 | 0.00 | 61 | 1018.4 |
| 20260904053947 | 76 | 214 | 0.0 | 0.0 | 0.00 | 0.00 | 0.00 | 61 | 1018.3 |
| 20260904053447 | 75 | 227 | 0.0 | 0.0 | 0.00 | 0.00 | 0.00 | 61 | 1018.3 |
| 20260904052946 | 75 | 184 | 0.0 | 0.0 | 0.00 | 0.00 | 0.00 | 61 | 1018.2 |
| 20260904052446 | 75 | 210 | 0.0 | 0.0 | 0.00 | 0.00 | 0.00 | 62 | 1018.1 |
| 20260904051946 | 74 | 222 | 0.0 | 0.0 | 0.00 | 0.00 | 0.00 | 63 | 1018.2 |
| 20260904051445 | 74 | 206 | 0.0 | 0.0 | 0.00 | 0.00 | 0.00 | 63 | 1018.1 |
| 20260904050945 | 74 | 204 | 0.0 | 0.0 | 0.00 | 0.00 | 0.00 | 64 | 1018.1 |
| 20260904050445 | 74 | 207 | 0.0 | 0.0 | 0.00 | 0.00 | 0.00 | 64 | 1018.1 |
| 20260904045945 | 74 | 216 | 0.0 | 0.0 | 0.00 | 0.00 | 0.00 | 64 | 1018.1 |
| 20260904045444 | 74 | 218 | 0.0 | 0.0 | 0.00 | 0.00 | 0.00 | 64 | 1018.1 |
| 20260904044944 | 74 | 220 | 0.0 | 0.0 | 0.00 | 0.00 | 0.00 | 64 | 1018.0 |
| 20260904044444 | 74 | 229 | 0.0 | 0.0 | 0.00 | 0.00 | 0.00 | 63 | 1017.9 |
| 20260904043943 | 74 | 234 | 0.0 | 0.0 | 0.00 | 0.00 | 0.00 | 63 | 1017.9 |
| 20260904043443 | 74 | 222 | 0.0 | 0.0 | 0.00 | 0.00 | 0.00 | 63 | 1017.9 |
| 20260904042943 | 74 | 222 | 0.0 | 0.0 | 0.00 | 0.00 | 0.00 | 63 | 1017.9 |
| 20260904042443 | 74 | 218 | 0.0 | 0.0 | 0.00 | 0.00 | 0.00 | 62 | 1017.9 |
| 20260904041942 | 75 | 224 | 0.0 | 0.0 | 0.00 | 0.00 | 0.00 | 62 | 1017.8 |
| 20260904041442 | 75 | 206 | 0.0 | 0.0 | 0.00 | 0.00 | 0.00 | 62 | 1017.8 |
| 20260904040942 | 75 | 218 | 0.0 | 0.0 | 0.00 | 0.00 | 0.00 | 62 | 1017.8 |
| 20260904040441 | 75 | 200 | 0.0 | 0.0 | 0.00 | 0.00 | 0.00 | 62 | 1017.8 |
| 20260904035941 | 75 | 210 | 0.0 | 0.0 | 0.00 | 0.00 | 0.00 | 62 | 1017.8 |
| 20260904035441 | 75 | 212 | 0.0 | 0.0 | 0.00 | 0.00 | 0.00 | 63 | 1017.8 |
| 20260904034940 | 75 | 216 | 0.0 | 0.0 | 0.00 | 0.00 | 0.00 | 62 | 1017.8 |
| 20260904034440 | 75 | 213 | 0.0 | 0.0 | 0.00 | 0.00 | 0.00 | 62 | 1017.9 |
| 20260904033940 | 75 | 198 | 0.0 | 0.0 | 0.00 | 0.00 | 0.00 | 62 | 1017.8 |
| 20260904033440 | 75 | 213 | 0.0 | 0.0 | 0.00 | 0.00 | 0.00 | 62 | 1017.8 |
| 20260904032939 | 75 | 215 | 0.0 | 0.0 | 0.00 | 0.00 | 0.00 | 62 | 1017.8 |
| 20260904032439 | 75 | 195 | 0.0 | 0.0 | 0.00 | 0.00 | 0.00 | 62 | 1017.8 |
| 20260904031939 | 75 | 211 | 0.0 | 0.0 | 0.00 | 0.00 | 0.00 | 62 | 1017.8 |
| 20260904031438 | 75 | 214 | 0.0 | 0.0 | 0.00 | 0.00 | 0.00 | 62 | 1017.8 |
| 20260904030938 | 75 | 234 | 0.0 | 0.0 | 0.00 | 0.00 | 0.00 | 62 | 1017.8 |
| 20260904030438 | 75 | 208 | 0.0 | 0.0 | 0.00 | 0.00 | 0.00 | 62 | 1017.7 |
| 20260904025938 | 75 | 208 | 0.0 | 0.0 | 0.00 | 0.00 | 0.00 | 62 | 1017.7 |
| 20260904025437 | 75 | 212 | 0.0 | 0.0 | 0.00 | 0.00 | 0.00 | 63 | 1017.8 |
| 20260904024937 | 75 | 213 | 0.0 | 0.0 | 0.00 | 0.00 | 0.00 | 63 | 1017.8 |
| 20260904024437 | 75 | 212 | 0.0 | 0.0 | 0.00 | 0.00 | 0.00 | 63 | 1017.8 |
| 20260904023936 | 75 | 212 | 0.0 | 0.0 | 0.00 | 0.00 | 0.00 | 62 | 1017.8 |
| 20260904023436 | 75 | 212 | 0.0 | 0.0 | 0.00 | 0.00 | 0.00 | 62 | 1017.8 |
| 20260904022936 | 75 | 212 | 0.0 | 0.0 | 0.00 | 0.00 | 0.00 | 62 | 1017.8 |
| 20260904022436 | 75 | 219 | 0.0 | 0.0 | 0.00 | 0.00 | 0.00 | 62 | 1017.7 |
| 20260904021935 | 75 | 219 | 0.0 | 0.0 | 0.00 | 0.00 | 0.00 | 62 | 1017.7 |
| 20260904021435 | 75 | 219 | 0.0 | 0.0 | 0.00 | 0.00 | 0.00 | 62 | 1017.7 |
| 20260904020935 | 75 | 219 | 0.0 | 0.0 | 0.00 | 0.00 | 0.00 | 62 | 1017.7 |
| 20260904020434 | 75 | 218 | 0.0 | 0.0 | 0.00 | 0.00 | 0.00 | 62 | 1017.6 |
| 20260904015934 | 75 | 220 | 0.0 | 0.0 | 0.00 | 0.00 | 0.00 | 62 | 1017.6 |
| 20260904015434 | 75 | 226 | 0.0 | 0.0 | 0.00 | 0.00 | 0.00 | 62 | 1017.6 |
| 20260904014934 | 76 | 211 | 0.0 | 0.0 | 0.00 | 0.00 | 0.00 | 61 | 1017.6 |
| 20260904014433 | 76 | 204 | 0.0 | 0.0 | 0.00 | 0.00 | 0.00 | 61 | 1017.6 |
| 20260904013933 | 76 | 202 | 0.0 | 0.0 | 0.00 | 0.00 | 0.00 | 61 | 1017.6 |
| 20260904013433 | 76 | 212 | 0.0 | 0.0 | 0.00 | 0.00 | 0.00 | 61 | 1017.5 |
| 20260904012932 | 76 | 210 | 0.0 | 0.0 | 0.00 | 0.00 | 0.00 | 61 | 1017.6 |
| 20260904012432 | 76 | 210 | 0.0 | 0.0 | 0.00 | 0.00 | 0.00 | 62 | 1017.6 |
| 20260904011932 | 76 | 212 | 0.0 | 0.0 | 0.00 | 0.00 | 0.00 | 61 | 1017.6 |
| 20260904011431 | 76 | 206 | 0.0 | 0.0 | 0.00 | 0.00 | 0.00 | 61 | 1017.6 |
| 20260904010931 | 76 | 203 | 0.0 | 0.0 | 0.00 | 0.00 | 0.00 | 61 | 1017.6 |
| 20260904010431 | 76 | 201 | 0.0 | 0.0 | 0.00 | 0.00 | 0.00 | 61 | 1017.6 |
| 20260904005931 | 76 | 201 | 0.0 | 0.0 | 0.00 | 0.00 | 0.00 | 61 | 1017.6 |
| 20260904005430 | 76 | 200 | 0.0 | 0.0 | 0.00 | 0.00 | 0.00 | 61 | 1017.6 |
| 20260904004930 | 76 | 200 | 0.0 | 0.0 | 0.00 | 0.00 | 0.00 | 61 | 1017.7 |
| 20260904004430 | 76 | 193 | 0.0 | 0.0 | 0.00 | 0.00 | 0.00 | 61 | 1017.6 |
| 20260904003930 | 76 | 193 | 0.0 | 0.0 | 0.00 | 0.00 | 0.00 | 61 | 1017.7 |
| 20260904003429 | 76 | 193 | 0.0 | 0.0 | 0.00 | 0.00 | 0.00 | 61 | 1017.7 |
| 20260904002929 | 76 | 193 | 0.0 | 0.0 | 0.00 | 0.00 | 0.00 | 61 | 1017.7 |
| 20260904002429 | 76 | 193 | 0.0 | 0.0 | 0.00 | 0.00 | 0.00 | 61 | 1017.8 |
| 20260904001928 | 76 | 193 | 0.0 | 0.0 | 0.00 | 0.00 | 0.00 | 60 | 1017.9 |
| 20260904001428 | 76 | 193 | 0.0 | 0.0 | 0.00 | 0.00 | 0.00 | 60 | 1017.9 |
| 20260904000928 | 77 | 193 | 0.0 | 0.0 | 0.00 | 0.00 | 0.00 | 60 | 1017.9 |
| 20260904000427 | 77 | 193 | 0.0 | 0.0 | 0.00 | 0.00 | 0.00 | 60 | 1017.9 |
| 20260903235927 | 77 | 193 | 0.0 | 0.0 | 0.00 | 0.00 | 0.00 | 60 | 1017.9 |
| 20260903235427 | 77 | 193 | 0.0 | 0.0 | 0.00 | 0.00 | 0.00 | 60 | 1017.9 |
| 20260903234927 | 77 | 193 | 0.0 | 0.0 | 0.00 | 0.00 | 0.00 | 60 | 1017.9 |
| 20260903234426 | 77 | 193 | 0.0 | 0.0 | 0.00 | 0.00 | 0.00 | 60 | 1017.9 |
| 20260903233926 | 77 | 193 | 0.0 | 0.0 | 0.00 | 0.00 | 0.00 | 60 | 1017.9 |
| 20260903233426 | 76 | 193 | 0.0 | 0.0 | 0.00 | 0.00 | 0.00 | 60 | 1017.9 |
| 20260903232925 | 76 | 191 | 0.0 | 0.0 | 0.00 | 0.00 | 0.00 | 60 | 1017.8 |
| 20260903232425 | 77 | 191 | 0.0 | 0.0 | 0.00 | 0.00 | 0.00 | 60 | 1017.8 |
| 20260903231925 | 77 | 191 | 0.0 | 0.0 | 0.00 | 0.00 | 0.00 | 60 | 1017.8 |
| 20260903231425 | 77 | 191 | 0.0 | 0.0 | 0.00 | 0.00 | 0.00 | 60 | 1017.8 |
| 20260903230924 | 77 | 191 | 0.0 | 0.0 | 0.00 | 0.00 | 0.00 | 60 | 1017.9 |
| 20260903230424 | 77 | 191 | 0.0 | 0.0 | 0.00 | 0.00 | 0.00 | 60 | 1017.9 |
| 20260903225924 | 77 | 191 | 0.0 | 0.0 | 0.00 | 0.00 | 0.00 | 59 | 1017.9 |
| 20260903225423 | 77 | 191 | 0.0 | 0.0 | 0.00 | 0.00 | 0.00 | 59 | 1017.9 |
| 20260903224923 | 77 | 191 | 0.0 | 0.0 | 0.00 | 0.00 | 0.00 | 59 | 1017.9 |
| 20260903224423 | 77 | 191 | 0.0 | 0.0 | 0.00 | 0.00 | 0.00 | 59 | 1017.9 |
| 20260903223923 | 78 | 191 | 0.0 | 0.0 | 0.00 | 0.00 | 0.00 | 58 | 1017.7 |
| 20260903223422 | 78 | 191 | 0.0 | 0.0 | 0.00 | 0.00 | 0.00 | 58 | 1017.7 |
| 20260903222922 | 78 | 191 | 0.0 | 0.0 | 0.00 | 0.00 | 0.00 | 58 | 1017.7 |
| 20260903222422 | 78 | 191 | 0.0 | 0.0 | 0.00 | 0.00 | 0.00 | 58 | 1017.7 |
| 20260903221921 | 78 | 191 | 0.0 | 0.0 | 0.00 | 0.00 | 0.00 | 57 | 1017.7 |
| 20260903221421 | 78 | 191 | 0.0 | 0.0 | 0.00 | 0.00 | 0.00 | 57 | 1017.7 |
| 20260903220921 | 78 | 191 | 0.0 | 0.0 | 0.00 | 0.00 | 0.00 | 57 | 1017.6 |
| 20260903220421 | 78 | 191 | 0.0 | 0.0 | 0.00 | 0.00 | 0.00 | 57 | 1017.6 |
| 20260903220151 | 78 | 191 | 0.0 | 0.0 | 0.00 | 0.00 | 0.00 | 58 | 1017.6 |
| 20260903220116 | 78 | 191 | 0.0 | 0.0 | 0.00 | 0.00 | 0.00 | 58 | 1017.6 |
| 20260903215920 | 78 | 191 | 0.0 | 0.0 | 0.00 | 0.00 | 0.00 | 58 | 1017.6 |
| 20260903215420 | 78 | 191 | 0.0 | 0.0 | 0.00 | 0.00 | 0.00 | 58 | 1017.5 |
| 20260903214920 | 77 | 163 | 0.0 | 0.0 | 0.00 | 0.00 | 0.00 | 59 | 1017.5 |
| 20260903214419 | 77 | 137 | 0.0 | 0.0 | 0.00 | 0.00 | 0.00 | 60 | 1017.5 |
| 20260903213919 | 77 | 137 | 0.0 | 0.0 | 0.00 | 0.00 | 0.00 | 60 | 1017.5 |
| 20260903213419 | 77 | 137 | 0.0 | 0.0 | 0.00 | 0.00 | 0.00 | 60 | 1017.5 |
| 20260903212919 | 77 | 137 | 0.0 | 0.0 | 0.00 | 0.00 | 0.00 | 60 | 1017.5 |
| 20260903212418 | 77 | 137 | 0.0 | 0.0 | 0.00 | 0.00 | 0.00 | 60 | 1017.5 |
| 20260903211918 | 77 | 137 | 0.0 | 0.0 | 0.00 | 0.00 | 0.00 | 60 | 1017.5 |
| 20260903211418 | 77 | 137 | 0.0 | 0.0 | 0.00 | 0.00 | 0.00 | 61 | 1017.6 |
| 20260903210917 | 77 | 137 | 0.0 | 0.0 | 0.00 | 0.00 | 0.00 | 62 | 1017.6 |
| 20260903210641 | 77 | 137 | 0.0 | 0.0 | 0.00 | 0.00 | 0.00 | 63 | 1017.5 |
| 20260903210417 | 77 | 137 | 0.0 | 0.0 | 0.00 | 0.00 | 0.00 | 62 | 1017.6 |
| 20260903205917 | 77 | 137 | 0.0 | 0.0 | 0.00 | 0.00 | 0.00 | 63 | 1017.5 |
| 20260903205417 | 77 | 137 | 0.0 | 0.0 | 0.00 | 0.00 | 0.00 | 63 | 1017.5 |
| 20260903204916 | 77 | 137 | 0.0 | 0.0 | 0.00 | 0.00 | 0.00 | 63 | 1017.5 |
| 20260903204551 | 77 | 137 | 0.0 | 0.0 | 0.00 | 0.00 | 0.00 | 63 | 1017.4 |
| 20260903204416 | 77 | 137 | 0.0 | 0.0 | 0.00 | 0.00 | 0.00 | 63 | 1017.4 |
| 20260903203916 | 77 | 137 | 0.0 | 0.0 | 0.00 | 0.00 | 0.00 | 63 | 1017.4 |
| 20260903203415 | 77 | 137 | 0.0 | 0.0 | 0.00 | 0.00 | 0.00 | 63 | 1017.4 |
| 20260903202915 | 77 | 137 | 0.0 | 0.0 | 0.00 | 0.00 | 0.00 | 62 | 1017.4 |
| 20260903202415 | 78 | 137 | 0.0 | 0.0 | 0.00 | 0.00 | 0.00 | 62 | 1017.4 |
| 20260903201915 | 78 | 137 | 0.0 | 0.0 | 0.00 | 0.00 | 0.00 | 61 | 1017.4 |
| 20260903201414 | 78 | 137 | 0.0 | 0.0 | 0.00 | 0.00 | 0.00 | 60 | 1017.4 |
| 20260903200914 | 79 | 137 | 0.0 | 0.0 | 0.00 | 0.00 | 0.00 | 60 | 1017.4 |
| 20260903200414 | 79 | 137 | 0.0 | 0.0 | 0.00 | 0.00 | 0.00 | 59 | 1017.5 |
| 20260903195913 | 79 | 137 | 0.0 | 0.0 | 0.00 | 0.00 | 0.00 | 58 | 1017.4 |
| 20260903195413 | 80 | 137 | 0.0 | 0.0 | 0.00 | 0.00 | 0.00 | 57 | 1017.5 |
| 20260903194913 | 80 | 137 | 0.0 | 0.0 | 0.00 | 0.00 | 0.00 | 57 | 1017.4 |
| 20260903194412 | 81 | 137 | 0.0 | 0.0 | 0.00 | 0.00 | 0.00 | 56 | 1017.4 |
| 20260903193912 | 81 | 137 | 0.0 | 0.0 | 0.00 | 0.00 | 0.00 | 55 | 1017.3 |
| 20260903193412 | 81 | 137 | 0.0 | 0.0 | 0.00 | 0.00 | 0.00 | 55 | 1017.3 |
| 20260903192912 | 81 | 137 | 0.0 | 0.0 | 0.00 | 0.00 | 0.00 | 55 | 1017.3 |
| 20260903192411 | 81 | 137 | 0.0 | 0.0 | 0.00 | 0.00 | 0.00 | 54 | 1017.3 |
| 20260903191911 | 82 | 137 | 0.0 | 0.0 | 0.00 | 0.00 | 0.00 | 54 | 1017.2 |
| 20260903191411 | 82 | 137 | 0.0 | 0.0 | 0.00 | 0.00 | 0.00 | 54 | 1017.2 |
| 20260903190910 | 82 | 137 | 0.0 | 0.0 | 0.00 | 0.00 | 0.00 | 53 | 1017.1 |
| 20260903190410 | 82 | 137 | 0.0 | 0.0 | 0.00 | 0.00 | 0.00 | 53 | 1017.1 |
| 20260903185910 | 82 | 137 | 0.0 | 0.0 | 0.00 | 0.00 | 0.00 | 54 | 1017.1 |
| 20260903185410 | 81 | 139 | 0.0 | 0.0 | 0.00 | 0.00 | 0.00 | 54 | 1017.0 |
| 20260903184909 | 81 | 149 | 0.0 | 0.0 | 0.00 | 0.00 | 0.00 | 55 | 1017.1 |
| 20260903184409 | 80 | 239 | 0.0 | 0.0 | 0.00 | 0.00 | 0.00 | 55 | 1017.0 |
| 20260903183909 | 81 | 243 | 0.0 | 0.0 | 0.00 | 0.00 | 0.00 | 55 | 1017.0 |
| 20260903183408 | 81 | 243 | 0.0 | 0.0 | 0.00 | 0.00 | 0.00 | 54 | 1016.9 |
| 20260903182908 | 81 | 243 | 0.0 | 0.0 | 0.00 | 0.00 | 0.00 | 54 | 1016.9 |
| 20260903182408 | 82 | 243 | 0.0 | 0.0 | 0.00 | 0.00 | 0.00 | 53 | 1016.8 |
| 20260903181908 | 82 | 243 | 0.0 | 0.0 | 0.00 | 0.00 | 0.00 | 53 | 1016.8 |
| 20260903181407 | 83 | 243 | 0.0 | 0.0 | 0.00 | 0.00 | 0.00 | 52 | 1016.8 |
| 20260903180907 | 84 | 243 | 0.0 | 0.0 | 0.00 | 0.00 | 0.00 | 51 | 1016.7 |
| 20260903180407 | 84 | 243 | 0.0 | 0.0 | 0.00 | 0.00 | 0.00 | 50 | 1016.7 |
| 20260903175906 | 85 | 243 | 0.0 | 0.0 | 0.00 | 0.00 | 0.00 | 49 | 1016.7 |
| 20260903175406 | 85 | 243 | 0.0 | 0.0 | 0.00 | 0.00 | 0.00 | 48 | 1016.6 |
| 20260903174906 | 86 | 243 | 0.0 | 0.0 | 0.00 | 0.00 | 0.00 | 47 | 1016.6 |
| 20260903174406 | 87 | 243 | 0.0 | 0.0 | 0.00 | 0.00 | 0.00 | 46 | 1016.5 |
| 20260903173905 | 88 | 243 | 0.0 | 0.0 | 0.00 | 0.00 | 0.00 | 44 | 1016.5 |
| 20260903173405 | 89 | 243 | 0.0 | 0.0 | 0.00 | 0.00 | 0.00 | 42 | 1016.4 |
| 20260903172905 | 90 | 242 | 0.0 | 0.0 | 0.00 | 0.00 | 0.00 | 39 | 1016.5 |
| 20260903172404 | 90 | 239 | 0.0 | 0.0 | 0.00 | 0.00 | 0.00 | 38 | 1016.4 |
| 20260903171904 | 91 | 235 | 0.0 | 0.0 | 0.00 | 0.00 | 0.00 | 38 | 1016.3 |
| 20260903171404 | 91 | 235 | 0.0 | 0.0 | 0.00 | 0.00 | 0.00 | 37 | 1016.3 |
| 20260903170904 | 92 | 234 | 0.0 | 0.0 | 0.00 | 0.00 | 0.00 | 36 | 1016.3 |
| 20260903170403 | 92 | 234 | 0.0 | 0.0 | 0.00 | 0.00 | 0.00 | 37 | 1016.2 |
| 20260903165903 | 92 | 233 | 0.0 | 0.0 | 0.00 | 0.00 | 0.00 | 36 | 1016.1 |
| 20260903165403 | 92 | 234 | 0.0 | 0.0 | 0.00 | 0.00 | 0.00 | 36 | 1016.1 |
| 20260903164902 | 92 | 233 | 0.0 | 0.0 | 0.00 | 0.00 | 0.00 | 36 | 1016.1 |
| 20260903164402 | 92 | 234 | 0.0 | 0.0 | 0.00 | 0.00 | 0.00 | 36 | 1016.1 |
| 20260903163902 | 93 | 234 | 0.0 | 0.0 | 0.00 | 0.00 | 0.00 | 35 | 1016.1 |
| 20260903163402 | 93 | 234 | 0.0 | 0.0 | 0.00 | 0.00 | 0.00 | 35 | 1016.1 |
| 20260903162901 | 93 | 233 | 0.0 | 0.0 | 0.00 | 0.00 | 0.00 | 34 | 1016.1 |
| 20260903162401 | 93 | 234 | 0.0 | 0.0 | 0.00 | 0.00 | 0.00 | 34 | 1016.1 |
| 20260903161901 | 93 | 233 | 0.0 | 0.0 | 0.00 | 0.00 | 0.00 | 35 | 1016.1 |
| 20260903161400 | 93 | 234 | 0.0 | 0.0 | 0.00 | 0.00 | 0.00 | 35 | 1016.1 |
| 20260903160900 | 92 | 233 | 0.0 | 0.0 | 0.00 | 0.00 | 0.00 | 35 | 1016.0 |
| 20260903160400 | 92 | 233 | 0.0 | 0.0 | 0.00 | 0.00 | 0.00 | 36 | 1016.0 |
| 20260903155859 | 92 | 234 | 0.0 | 0.0 | 0.00 | 0.00 | 0.00 | 36 | 1015.9 |
| 20260903155359 | 92 | 236 | 0.0 | 0.0 | 0.00 | 0.00 | 0.00 | 37 | 1015.9 |
| 20260903154859 | 91 | 266 | 0.0 | 0.0 | 0.00 | 0.00 | 0.00 | 38 | 1016.0 |
| 20260903154359 | 91 | 310 | 0.0 | 0.0 | 0.00 | 0.00 | 0.00 | 38 | 1016.0 |
| 20260903153858 | 91 | 291 | 0.0 | 0.0 | 0.00 | 0.00 | 0.00 | 38 | 1016.2 |
| 20260903153358 | 92 | 291 | 0.0 | 0.0 | 0.00 | 0.00 | 0.00 | 37 | 1016.2 |
| 20260903152858 | 92 | 289 | 0.0 | 0.0 | 0.00 | 0.00 | 0.00 | 37 | 1016.3 |
| 20260903152357 | 92 | 183 | 0.0 | 0.0 | 0.00 | 0.00 | 0.00 | 37 | 1016.4 |
| 20260903151857 | 93 | 178 | 0.0 | 0.0 | 0.00 | 0.00 | 0.00 | 36 | 1016.3 |
| 20260903151357 | 93 | 239 | 0.0 | 0.0 | 0.00 | 0.00 | 0.00 | 37 | 1016.5 |
| 20260903150857 | 93 | 239 | 0.0 | 0.0 | 0.00 | 0.00 | 0.00 | 37 | 1016.5 |
| 20260903150356 | 92 | 237 | 0.0 | 0.0 | 0.00 | 0.00 | 0.00 | 37 | 1016.5 |
| 20260903145856 | 92 | 239 | 0.0 | 0.0 | 0.00 | 0.00 | 0.00 | 37 | 1016.6 |
| 20260903145356 | 92 | 239 | 0.0 | 0.0 | 0.00 | 0.00 | 0.00 | 38 | 1016.6 |
| 20260903144855 | 91 | 303 | 0.0 | 0.0 | 0.00 | 0.00 | 0.00 | 38 | 1016.6 |
| 20260903144355 | 91 | 326 | 0.0 | 0.0 | 0.00 | 0.00 | 0.00 | 38 | 1016.7 |
| 20260903143855 | 91 | 17 | 0.0 | 0.0 | 0.00 | 0.00 | 0.00 | 38 | 1016.7 |
| 20260903143355 | 91 | 28 | 0.0 | 0.0 | 0.00 | 0.00 | 0.00 | 38 | 1016.8 |
| 20260903142854 | 91 | 52 | 0.0 | 0.0 | 0.00 | 0.00 | 0.00 | 38 | 1016.8 |
| 20260903142354 | 91 | 54 | 0.0 | 0.0 | 0.00 | 0.00 | 0.00 | 39 | 1016.8 |
| 20260903141854 | 91 | 20 | 0.0 | 0.0 | 0.00 | 0.00 | 0.00 | 39 | 1016.8 |
| 20260903141353 | 92 | 48 | 0.0 | 0.0 | 0.00 | 0.00 | 0.00 | 38 | 1016.8 |
| 20260903140853 | 93 | 285 | 0.0 | 0.0 | 0.00 | 0.00 | 0.00 | 38 | 1016.9 |
| 20260903140353 | 93 | 243 | 0.0 | 0.0 | 0.00 | 0.00 | 0.00 | 38 | 1016.9 |
| 20260903135853 | 92 | 248 | 0.0 | 0.0 | 0.00 | 0.00 | 0.00 | 39 | 1016.9 |
| 20260903135352 | 91 | 284 | 0.0 | 0.0 | 0.00 | 0.00 | 0.00 | 40 | 1017.0 |
| 20260903134852 | 91 | 318 | 0.0 | 0.0 | 0.00 | 0.00 | 0.00 | 40 | 1017.0 |
| 20260903134352 | 91 | 320 | 0.0 | 0.0 | 0.00 | 0.00 | 0.00 | 40 | 1017.0 |
| 20260903133851 | 91 | 12 | 0.0 | 0.0 | 0.00 | 0.00 | 0.00 | 40 | 1017.0 |
| 20260903133351 | 91 | 57 | 0.0 | 0.0 | 0.00 | 0.00 | 0.00 | 41 | 1017.1 |
| 20260903132851 | 90 | 147 | 0.0 | 0.0 | 0.00 | 0.00 | 0.00 | 41 | 1017.0 |
| 20260903132351 | 90 | 149 | 0.0 | 0.0 | 0.00 | 0.00 | 0.00 | 40 | 1017.0 |
| 20260903131850 | 90 | 147 | 0.0 | 0.0 | 0.00 | 0.00 | 0.00 | 41 | 1017.1 |